Weather in Thompson

Canada     55°44′40″N   97°51′07″W
В апреле 2022 года жителям России запретили посещать сайт meteo.paraplan.net по решению Генеральной прокуратуры. Аудитория сайта уменьшилась в 10 раз. Владельцы сайта не видят смысла в поддержке погодного сервера в таких условиях. Сайт будет закрыт в октябре.
temp.,
°C
wind,
m/s
gust,
m/s
humid.,
%
clouds,
%
prec.,
mm/h
press.,
hPa
HPBL,
m
4 october, tue
tue401:00+6w1159100 0.0 102110
04:00+6w1262100 0.0 102013
07:00+4w116885 0.0 101910
10:00+8wsw1153100 0.0 1019173
13:00+14sw123847 0.0 1017788
16:00+15sw223168 0.0 10151293
19:00+10s114790 0.0 101510
22:00+7s225735 0.0 101513
5 october, wed
wed501:00+7nw1158100 0.0 101512
04:00+5ne5880100 0.2 1017362
07:00+1nne6129199 0.3 1021694
10:00+1nne6117794 0.2 1025849
13:00+3nne684667 0.2 10281251
16:00+3nne684199 0.0 10301606
19:000nne48526 0.0 1033513
22:00−3n27684 0.0 1036186
6 october, thu
thu601:00−4n24765 0.0 103782
04:00−5nw22765 0.0 103833
07:00−6nw22780 0.0 103922
10:00−1w23590 0.0 1039299
13:00+4wsw34380 0.0 10371004
16:00+6sw45290 0.0 10331237
19:00+2ssw374077 0.0 1031123
22:00+1ssw41243100 0.0 1029409
7 october, fri
fri701:00+2ssw5144999 0.0 1025535
04:00+3ssw51455100 0.1 1021568
07:00+4sw51446100 0.1 1017627
10:00+6w41248100 0.0 1015571
13:00+9nw5858100 0.0 10151169
16:00+9nnw5957100 0.0 10161300
19:00+5n496988 0.0 1018752
22:00+3n486853 0.0 1020831
8 october, sat
sat801:000nw25845 0.0 1020114
04:00−1wnw259151 0.0 1020100
07:00−1wnw2394100 0.0 102073
10:00+3nw237356 0.0 1020250
13:00+8wnw224758 0.0 1019680
16:00+10nne234568 0.0 10181075
19:00+6ene255975 0.0 102095
22:00+6nnw11600 0.0 101811